Parsons, KS

8:10 PM CST on November 16, 2019 (GMT -0600)
Tri-City

Weather History for KPPF - July, 2019

Change the Weather History Date:

Wednesday, July 24, 2019

  Actual Average Record
Temperature  
Mean Temperature 70 °F -  
Max Temperature 82 °F 91 °F 108 °F (2011)
Min Temperature 57 °F 68 °F 55 °F (2003)
Cooling Degree Days 4    
Growing Degree Days 20 (Base 50)    
Moisture  
Dew Point 60 °F    
Average Humidity 74    
Maximum Humidity 100    
Minimum Humidity 47    
Precipitation  
Precipitation 0.00 in - - ()
Sea Level Pressure  
Sea Level Pressure 30.17 in    
Wind  
Wind Speed 1 mph (SSE)    
Max Wind Speed 6 mph    
Max Gust Speed -    
Visibility 10 miles    
Events      
Averages and records for this station are not official NWS values.
T = Trace of Precipitation, MM = Missing Value Source: NWS Daily Summary

Daily Weather History Graph

Daily Weather History Graph

Search for Another Location

Airport or City:

Astronomy

Jul. 24, 2019 Rise Set
Actual Time 6:19 AM CDT 8:36 PM CDT
Civil Twilight 5:50 AM CDT 9:06 PM CDT
Nautical Twilight 5:14 AM CDT 9:42 PM CDT
Astronomical Twilight 4:34 AM CDT 10:21 PM CDT
Moon 12:33 AM CDT (7/24) 1:23 PM CDT (7/24)
Length of Visible Light 15h 15m
Length of Day
14h 16m
Waning Gibbous, 53% of the Moon is Illuminated
Jul 24
Waning Gibbous
Jul 24
Last Quarter
Jul 31
New
Aug 7
First Quarter
Aug 15
Full

Hourly Weather History & Observations

Time (CDT) Temp. Heat Index Dew Point Humidity Pressure Visibility Wind Dir Wind Speed Gust Speed Precip Events Conditions
12:52 AM 64.0 °F - 61.0 °F 90% 30.19 in 10.0 mi Calm Calm - N/A   Clear
1:52 AM 61.0 °F - 60.1 °F 97% 30.19 in 10.0 mi Calm Calm - N/A   Clear
2:52 AM 61.0 °F - 60.1 °F 97% 30.19 in 10.0 mi Calm Calm - N/A   Clear
3:52 AM 60.1 °F - 59.0 °F 96% 30.18 in 10.0 mi Calm Calm - N/A   Clear
4:52 AM 60.1 °F - 59.0 °F 96% 30.19 in 10.0 mi Calm Calm - N/A   Clear
5:52 AM 60.1 °F - 59.0 °F 96% 30.20 in 10.0 mi Calm Calm - N/A   Clear
6:52 AM 57.0 °F - 57.0 °F 100% 30.22 in 10.0 mi Calm Calm - N/A   Clear
7:52 AM 64.9 °F - 63.0 °F 93% 30.22 in 10.0 mi Calm Calm - N/A   Clear
8:52 AM 71.1 °F - 63.0 °F 75% 30.24 in 10.0 mi Calm Calm - N/A   Clear
9:52 AM 75.9 °F - 62.1 °F 62% 30.24 in 10.0 mi Variable 3.5 mph - N/A   Clear
10:52 AM 77.0 °F - 57.9 °F 52% 30.24 in 10.0 mi SE 4.6 mph - N/A   Partly Cloudy
11:52 AM 77.0 °F - 59.0 °F 54% 30.22 in 10.0 mi Variable 3.5 mph - N/A   Scattered Clouds
12:52 PM 80.1 °F 80.9 °F 60.1 °F 50% 30.19 in 10.0 mi SSW 4.6 mph - N/A   Partly Cloudy
1:52 PM 82.0 °F 82.7 °F 61.0 °F 49% 30.17 in 10.0 mi Variable 4.6 mph - N/A   Scattered Clouds
2:52 PM 81.0 °F 81.6 °F 60.1 °F 49% 30.16 in 10.0 mi ESE 5.8 mph - N/A   Clear
3:52 PM 82.0 °F 82.4 °F 60.1 °F 47% 30.14 in 10.0 mi Calm Calm - N/A   Clear
4:52 PM 82.9 °F 83.3 °F 61.0 °F 47% 30.13 in 10.0 mi Calm Calm - N/A   Clear
5:52 PM 82.0 °F 82.4 °F 60.1 °F 47% 30.12 in 10.0 mi Calm Calm - N/A   Clear
6:52 PM 81.0 °F 81.6 °F 60.1 °F 49% 30.12 in 10.0 mi SSE 4.6 mph - N/A   Clear
7:52 PM 78.1 °F - 61.0 °F 56% 30.12 in 10.0 mi Calm Calm - N/A   Clear
8:52 PM 69.1 °F - 63.0 °F 81% 30.11 in 10.0 mi Calm Calm - N/A   Clear
9:52 PM 64.9 °F - 62.1 °F 90% 30.12 in 10.0 mi Calm Calm - N/A   Clear
10:52 PM 63.0 °F - 62.1 °F 97% 30.13 in 10.0 mi Calm Calm - N/A   Clear
11:52 PM 62.1 °F - 61.0 °F 96% 30.13 in 10.0 mi Calm Calm - N/A   Clear